Location: Azul
(36.7830°S, 59.8500°W)
Time: 02:44:25
(UTC-03:00)

ISS - Pass Details

Date: 29 November 2020
Orbit: 418 x 420 km, 51.6° (Epoch: 04 December)

Event Time Altitude Azimuth Distance (km) Brightness Sun altitude
Exits shadow 03:16:26 46° 83° (E) 580 -2.9 -21.9°
Drops below altitude 10° 03:19:14 10° 122° (ESE) 1,528 0.1 -21.6°
Sets 03:21:23 0° 126° (SE) 2,400 1.4 -21.3°
